WetterOnline ( https://www.wetteronline.de )

Wetter aktuell Andernach

Aktuelles Wetter: Andernach (75m)

6-stündlich | Neueste Meldungen
Ortszeit Temperatur Wetter
Do, 19.09. 14:00 17.1° C leicht bewölkt
Do, 19.09. 8:00 4.9° C wolkenlos
Do, 19.09. 2:00 10.5° C leicht bewölkt
Mi, 18.09. 20:00 15.5° C wolkig
Mi, 18.09. 14:00 17.4° C leicht bewölkt
Mi, 18.09. 8:00 5.4° C wolkenlos
Mi, 18.09. 2:00 10.5° C wolkenlos
Di, 17.09. 20:00 17.3° C bedeckt
Ortszeit Temperatur Wetter
Do, 19.09. 17:10 17.8° C wolkig
Do, 19.09. 17:00 17.6° C leicht bewölkt
Do, 19.09. 16:50 17.6° C leicht bewölkt
Do, 19.09. 16:40 18.1° C fast wolkenlos
Do, 19.09. 16:30 17.2° C leicht bewölkt
Do, 19.09. 16:20 17.2° C leicht bewölkt
Do, 19.09. 16:00 16.9° C leicht bewölkt
Do, 19.09. 15:30 17.4° C leicht bewölkt
Do, 19.09. 15:00 17.9° C fast wolkenlos
Do, 19.09. 14:30 16.2° C leicht bewölkt
Ortszeit Relative Feuchte Sichtweite
Do, 19.09. 14:00 39% 45 km
Do, 19.09. 8:00 92% 28 km
Do, 19.09. 2:00 72% 45 km
Mi, 18.09. 20:00 47% 40 km
Mi, 18.09. 14:00 41% 40 km
Mi, 18.09. 8:00 91% 25 km
Mi, 18.09. 2:00 72% 35 km
Di, 17.09. 20:00 53% 40 km
Ortszeit Relative Feuchte Sichtweite
Do, 19.09. 17:10 32% -
Do, 19.09. 17:00 35% 65 km
Do, 19.09. 16:50 35% -
Do, 19.09. 16:40 38% -
Do, 19.09. 16:30 36% 60 km
Do, 19.09. 16:20 36% -
Do, 19.09. 16:00 38% 50 km
Do, 19.09. 15:30 38% 55 km
Do, 19.09. 15:00 37% 55 km
Do, 19.09. 14:30 39% 50 km
Ortszeit Niederschlagsmenge Niederschlagsart
Do, 19.09. 14:00 0.0 l/m2 in 6 Std. -
Do, 19.09. 8:00 0.0 l/m2 in 12 Std. -
Do, 19.09. 2:00 0.0 l/m2 in 6 Std. -
Mi, 18.09. 20:00 0.0 l/m2 in 12 Std. -
Mi, 18.09. 14:00 0.0 l/m2 in 6 Std. -
Mi, 18.09. 8:00 0.0 l/m2 in 12 Std. -
Mi, 18.09. 2:00 0.0 l/m2 in 6 Std. -
Di, 17.09. 20:00 0.0 l/m2 in 12 Std. -
Ortszeit Niederschlagsmenge Niederschlagsart
Do, 19.09. 17:10 keine Meldung -
Do, 19.09. 17:00 0.0 l/m2 in 1 Std. -
Do, 19.09. 16:50 keine Meldung -
Do, 19.09. 16:40 keine Meldung -
Do, 19.09. 16:30 0.0 l/m2 in 1 Std. -
Do, 19.09. 16:20 keine Meldung -
Do, 19.09. 16:00 0.0 l/m2 in 1 Std. -
Do, 19.09. 15:30 0.0 l/m2 in 1 Std. -
Do, 19.09. 15:00 0.0 l/m2 in 1 Std. -
Do, 19.09. 14:30 0.0 l/m2 in 1 Std. -
Ortszeit Stärke Spitze Richtung
km/h Bft. km/h Grad Sektor
Do, 19.09. 14:00 7 2 25 40° NO
Do, 19.09. 8:00 4 1 11 210° SW
Do, 19.09. 2:00 7 2 18 320° NW
Mi, 18.09. 20:00 7 2 29 360° N
Mi, 18.09. 14:00 9 2 22 60° NO
Mi, 18.09. 8:00 6 1 15 200° S
Mi, 18.09. 2:00 7 2 29 320° NW
Di, 17.09. 20:00 11 2 32 320° NW
Ortszeit Stärke Spitze Richtung
km/h Bft. km/h Grad Sektor
Do, 19.09. 17:10 7 2 - 20° N
Do, 19.09. 17:00 13 3 20 350° N
Do, 19.09. 16:50 13 3 - 350° N
Do, 19.09. 16:40 7 2 - 340° N
Do, 19.09. 16:30 11 2 22 10° N
Do, 19.09. 16:20 11 2 - 10° N
Do, 19.09. 16:00 11 2 22 40° NO
Do, 19.09. 15:30 7 2 22 10° N
Do, 19.09. 15:00 9 2 26 50° NO
Do, 19.09. 14:30 9 2 19 350° N
Ortszeit Untergrenze Bedeckung Gattung
total tief tief mittel hoch
Do, 19.09. 14:00 1500 m 4/8 1/8 - - -
Do, 19.09. 8:00 - 0/8 0/8 - - -
Do, 19.09. 2:00 7800 m 4/8 0/8 - - -
Mi, 18.09. 20:00 1800 m 5/8 5/8 - - -
Mi, 18.09. 14:00 1500 m 3/8 3/8 - - -
Mi, 18.09. 8:00 - 0/8 0/8 - - -
Mi, 18.09. 2:00 - 0/8 0/8 - - -
Di, 17.09. 20:00 1440 m 8/8 8/8 - - -
Ortszeit Bedeckungsgrad in Achtel und Wolkenuntergrenze
Do, 19.09. 17:10 8(10500m)
Do, 19.09. 17:00 5(10500m)
Do, 19.09. 16:50 5(10500m)
Do, 19.09. 16:40 2(10500m)
Do, 19.09. 16:30 2(1500m)
Do, 19.09. 16:20 2(1500m)
Do, 19.09. 16:00 3(1500m) 4(10500m)
Do, 19.09. 15:30 1(1500m) 4(10500m)
Do, 19.09. 15:00 1(1500m)
Do, 19.09. 14:30 2(1500m) 3(10500m)
Ortszeit Luftdruck NN (hPa) Tendenz (hPa in 3 Std.)
Do, 19.09. 14:00 1030 - 0,9
Do, 19.09. 8:00 1030 + 1,0
Do, 19.09. 2:00 1029 + 1,1
Mi, 18.09. 20:00 1026 + 0,3
Mi, 18.09. 14:00 1026 - 1,1
Mi, 18.09. 8:00 1027 + 0,9
Mi, 18.09. 2:00 1025 + 1,1
Di, 17.09. 20:00 1021 + 0,1
Ortszeit Luftdruck NN (hPa) Tendenz (hPa in 3 Std.)
Do, 19.09. 17:10 1029 keine Meldung
Do, 19.09. 17:00 1029 - 1,1
Do, 19.09. 16:50 1029 keine Meldung
Do, 19.09. 16:40 1029 keine Meldung
Do, 19.09. 16:30 1029 - 1,1
Do, 19.09. 16:20 1029 keine Meldung
Do, 19.09. 16:00 1029 - 1,1
Do, 19.09. 15:30 1029 - 1,1
Do, 19.09. 15:00 1029 - 1,2
Do, 19.09. 14:30 1030 - 0,8
Ortszeit Schneehöhe (cm)
Do, 19.09. 14:00 -
Do, 19.09. 8:00 -
Do, 19.09. 2:00 -
Mi, 18.09. 20:00 -
Mi, 18.09. 14:00 -
Mi, 18.09. 8:00 -
Mi, 18.09. 2:00 -
Di, 17.09. 20:00 -
Ortszeit Schneehöhe (cm)
Do, 19.09. 17:10 -
Do, 19.09. 17:00 -
Do, 19.09. 16:50 -
Do, 19.09. 16:40 -
Do, 19.09. 16:30 -
Do, 19.09. 16:20 -
Do, 19.09. 16:00 -
Do, 19.09. 15:30 -
Do, 19.09. 15:00 -
Do, 19.09. 14:30 -
Link zu dieser Seite / Seite empfehlen

Das Wetter in ...